Pella, IA

11:02 AM CDT on April 30, 2017 (GMT -0500)
Pella Municipal

Weather History for KPEA - May, 2013

Change the Weather History Date:

Saturday, May 4, 2013

  Actual Average (KOXV) Record (KOXV)
Temperature  
Mean Temperature 46 °F -  
Max Temperature 58 °F 71 °F 89 °F (1952)
Min Temperature 34 °F 47 °F 30 °F (1954)
Degree Days  
Heating Degree Days 19    
Moisture  
Dew Point 46 °F    
Average Humidity 94    
Maximum Humidity 97    
Minimum Humidity 78    
Precipitation  
Precipitation 0.21 in - - ()
Sea Level Pressure  
Sea Level Pressure 29.95 in    
Wind  
Wind Speed 8 mph (North)    
Max Wind Speed 14 mph    
Max Gust Speed 18 mph    
Visibility 5 miles    
Events Fog , Rain    
Averages and records for this station are not official NWS values.
T = Trace of Precipitation, MM = Missing Value Source: NWS Daily Summary

Daily Weather History Graph

Daily Weather History Graph

Search for Another Location

Airport or City:

Trip Planner

Search our weather history database for the weather conditions in past years. The results will help you decide how hot, cold, wet, or windy it might be!

Date:

Astronomy

May. 04, 2013 Rise Set
Actual Time 6:04 AM CDT 8:12 PM CDT
Civil Twilight 5:34 AM CDT 8:43 PM CDT
Nautical Twilight 4:57 AM CDT 9:20 PM CDT
Astronomical Twilight 4:16 AM CDT 10:01 PM CDT
Moon 3:07 AM CDT (5/4) 3:07 PM CDT (5/4)
Length of Visible Light 15h 08m
Length of Day
14h 08m
Waning Crescent, 27% of the Moon is Illuminated
May 4
Waning Crescent
May 9
New
May 17
First Quarter
May 24
Full
May 31
Last Quarter

Hourly Weather History & Observations

Time (CDT) Temp. Windchill Dew Point Humidity Pressure Visibility Wind Dir Wind Speed Gust Speed Precip Events Conditions
12:15 AM 34.7 °F 25.5 °F 33.4 °F 95% 29.92 in 5.0 mi North 13.8 mph 18.4 mph N/A Rain Rain
12:35 AM 34.7 °F 30.6 °F 33.8 °F 97% 29.93 in 5.0 mi NNW 4.6 mph 17.3 mph N/A Rain Light Rain
12:55 AM 34.9 °F 27.1 °F 33.8 °F 96% 29.91 in 4.0 mi North 10.4 mph - 0.02 in Rain Rain
1:15 AM 34.9 °F 26.2 °F 33.8 °F 96% 29.89 in 5.0 mi North 12.7 mph 17.3 mph N/A Rain Light Rain
1:35 AM 35.4 °F 29.7 °F 34.2 °F 95% 29.90 in 7.0 mi North 6.9 mph - N/A Rain Rain
1:55 AM 35.6 °F 27.5 °F 34.7 °F 97% 29.89 in 7.0 mi North 11.5 mph - N/A Rain Light Rain
2:15 AM 35.8 °F 27.8 °F 34.9 °F 97% 29.88 in 7.0 mi North 11.5 mph - N/A Rain Light Rain
2:35 AM 36.5 °F 28.2 °F 35.6 °F 97% 29.86 in 10.0 mi North 12.7 mph 18.4 mph N/A   Light Drizzle
2:55 AM 36.7 °F 29.4 °F 35.8 °F 97% 29.86 in 7.0 mi North 10.4 mph 16.1 mph N/A Rain Light Rain
3:15 AM 37.6 °F 31.0 °F 36.7 °F 97% 29.86 in 7.0 mi North 9.2 mph - N/A Rain Light Rain
3:35 AM 38.3 °F 32.5 °F 37.4 °F 97% 29.86 in 10.0 mi NNE 8.1 mph - N/A   Light Drizzle
3:55 AM 38.8 °F 33.2 °F 37.9 °F 97% 29.86 in 10.0 mi North 8.1 mph - N/A   Overcast
4:15 AM 39.4 °F 33.8 °F 38.5 °F 97% 29.86 in 10.0 mi North 8.1 mph - N/A   Overcast
4:35 AM 40.5 °F 34.6 °F 39.6 °F 97% 29.86 in 7.0 mi NNE 9.2 mph 16.1 mph N/A   Drizzle
4:55 AM 41.0 °F 34.7 °F 40.1 °F 97% 29.86 in 5.0 mi NNE 10.4 mph - N/A   Overcast
5:15 AM 41.2 °F 36.6 °F 40.3 °F 97% 29.86 in 5.0 mi NNE 6.9 mph - N/A   Overcast
5:35 AM 41.7 °F 36.1 °F 40.6 °F 96% 29.86 in 4.0 mi NNE 9.2 mph - N/A   Overcast
5:55 AM 41.9 °F 36.3 °F 41.0 °F 97% 29.86 in 2.5 mi NNE 9.2 mph - N/A   Overcast
6:15 AM 42.8 °F 38.0 °F 41.9 °F 97% 29.87 in 1.8 mi NNE 8.1 mph - N/A   Overcast
6:35 AM 43.2 °F 39.0 °F 42.3 °F 97% 29.88 in 0.2 mi NNE 6.9 mph - N/A Fog Fog
6:55 AM 43.7 °F 39.7 °F 42.8 °F 97% 29.88 in 0.2 mi NNE 6.9 mph - N/A Fog Fog
7:15 AM 44.2 °F 41.0 °F 43.3 °F 97% 29.88 in 0.2 mi NNE 5.8 mph - N/A Fog Fog
7:35 AM 45.5 °F 43.2 °F 44.6 °F 97% 29.89 in 0.2 mi North 4.6 mph - N/A Fog Fog
7:55 AM 46.0 °F 43.9 °F 45.1 °F 97% 29.89 in 0.2 mi NNE 4.6 mph - N/A Fog Fog
8:15 AM 47.7 °F - 46.9 °F 97% 29.90 in 0.2 mi NE 3.5 mph - N/A Fog Fog
8:35 AM 47.8 °F - 47.1 °F 97% 29.91 in 0.2 mi NE 3.5 mph - N/A Fog Fog
8:55 AM 49.3 °F - 48.6 °F 97% 29.92 in 0.2 mi Calm Calm - N/A   Drizzle
9:15 AM 50.2 °F - 49.5 °F 97% 29.93 in 0.2 mi Calm Calm - 0.01 in Fog Fog
9:35 AM 50.7 °F - 50.0 °F 97% 29.94 in 0.2 mi SSE 4.6 mph - 0.01 in Fog Fog
9:55 AM 50.9 °F - 50.2 °F 97% 29.95 in 1.0 mi ESE 8.1 mph - 0.01 in   Overcast
10:15 AM 52.0 °F - 51.3 °F 97% 29.95 in 2.0 mi SE 4.6 mph - N/A   Overcast
10:35 AM 52.7 °F - 51.8 °F 97% 29.96 in 10.0 mi ESE 6.9 mph - N/A Rain Light Rain
10:55 AM 54.1 °F - 53.1 °F 96% 29.96 in 10.0 mi ESE 5.8 mph - N/A   Light Drizzle
11:15 AM 55.0 °F - 52.7 °F 92% 29.97 in 10.0 mi East 5.8 mph - N/A   Overcast
11:35 AM 57.2 °F - 52.9 °F 85% 29.96 in 10.0 mi ENE 5.8 mph - N/A   Overcast
11:55 AM 58.1 °F - 52.7 °F 82% 29.96 in 10.0 mi East 8.1 mph - N/A   Overcast
12:15 PM 57.9 °F - 51.1 °F 78% 29.97 in 10.0 mi East 5.8 mph - N/A   Overcast
12:35 PM 56.7 °F - 51.8 °F 84% 29.98 in 5.0 mi East 8.1 mph - N/A   Haze
12:55 PM 57.0 °F - 52.9 °F 86% 29.97 in 7.0 mi East 4.6 mph - N/A   Mostly Cloudy
1:15 PM 57.0 °F - 52.7 °F 85% 29.98 in 10.0 mi East 4.6 mph - N/A   Mostly Cloudy
1:35 PM 57.2 °F - 52.2 °F 83% 29.98 in 10.0 mi East 4.6 mph - N/A   Mostly Cloudy
1:55 PM 57.7 °F - 52.3 °F 82% 29.98 in 10.0 mi East 4.6 mph - N/A   Overcast
2:15 PM 57.9 °F - 52.9 °F 83% 29.98 in 10.0 mi Calm Calm - N/A   Overcast
2:35 PM 58.1 °F - 52.9 °F 83% 29.98 in 10.0 mi Calm Calm - N/A   Overcast
2:55 PM 58.3 °F - 53.6 °F 84% 29.98 in 7.0 mi Calm Calm - N/A   Mostly Cloudy
3:15 PM 58.3 °F - 53.6 °F 84% 29.98 in 10.0 mi Calm Calm - N/A   Mostly Cloudy
3:35 PM 56.7 °F - 53.4 °F 89% 29.98 in 5.0 mi West 9.2 mph - N/A   Overcast
3:55 PM 56.7 °F - 54.5 °F 92% 29.98 in 3.0 mi NW 8.1 mph - N/A   Overcast
4:15 PM 56.8 °F - 54.7 °F 92% 29.98 in 3.0 mi NW 8.1 mph - N/A   Overcast
4:35 PM 55.8 °F - 53.8 °F 93% 29.98 in 2.5 mi WNW 8.1 mph - N/A   Overcast
4:55 PM 54.9 °F - 53.2 °F 94% 29.98 in 2.0 mi WNW 9.2 mph - N/A Rain Rain
5:15 PM 54.7 °F - 53.2 °F 95% 29.98 in 1.8 mi WNW 10.4 mph - N/A Rain Rain
5:35 PM 53.8 °F - 52.3 °F 95% 29.98 in 1.8 mi WNW 8.1 mph - 0.02 in Rain Rain
5:55 PM 52.9 °F - 51.8 °F 96% 29.99 in 2.0 mi WNW 10.4 mph - 0.03 in Rain Rain
6:15 PM 51.3 °F - 50.0 °F 95% 29.99 in 2.5 mi NW 10.4 mph - N/A Rain Rain
6:35 PM 50.5 °F - 49.3 °F 95% 30.00 in 2.0 mi West 8.1 mph - 0.01 in Rain Rain
6:55 PM 50.4 °F - 49.1 °F 95% 30.00 in 1.0 mi WNW 10.4 mph - 0.10 in Rain Rain
7:15 PM 50.2 °F - 49.1 °F 96% 30.01 in 3.0 mi WNW 5.8 mph - N/A Rain Light Rain
7:35 PM 50.2 °F - 49.1 °F 96% 30.02 in 3.0 mi WNW 9.2 mph - N/A Rain Rain
7:55 PM 49.3 °F - 48.2 °F 96% 30.02 in 3.0 mi WNW 10.4 mph - N/A   Light Drizzle
8:15 PM 48.7 °F - 47.5 °F 95% 30.03 in 4.0 mi WNW 8.1 mph - N/A   Overcast
8:35 PM 48.2 °F - 46.9 °F 95% 30.03 in 3.0 mi WNW 8.1 mph - N/A   Overcast
8:55 PM 48.0 °F - 46.8 °F 95% 30.03 in 2.5 mi WNW 9.2 mph - N/A Rain Light Rain
9:15 PM 48.2 °F - 46.9 °F 95% 30.03 in 2.5 mi WNW 6.9 mph - 0.01 in Rain Rain
9:35 PM 47.7 °F - 46.6 °F 96% 30.04 in 2.0 mi West 6.9 mph - 0.01 in Rain Light Rain
9:55 PM 47.7 °F - 46.6 °F 96% 30.05 in 2.0 mi WNW 6.9 mph - 0.02 in Rain Light Rain
10:15 PM 47.7 °F - 46.8 °F 97% 30.05 in 2.5 mi WNW 6.9 mph - 0.01 in Rain Rain
10:35 PM 47.8 °F - 46.9 °F 97% 30.05 in 2.5 mi WNW 5.8 mph - 0.01 in Rain Heavy Rain
10:55 PM 48.0 °F - 47.1 °F 97% 30.05 in 2.0 mi NW 5.8 mph - 0.03 in Rain Rain
11:15 PM 48.0 °F - 47.1 °F 97% 30.06 in 3.0 mi NNW 6.9 mph - N/A Rain Rain
11:35 PM 47.8 °F - 46.9 °F 97% 30.05 in 2.5 mi WNW 5.8 mph - N/A Rain Light Rain
11:55 PM 47.5 °F - 46.6 °F 97% 30.06 in 2.5 mi WNW 5.8 mph - N/A Rain Rain